owner,sensor,date,latitude,longitude,vertical_datum,sea_water_practical_salinity,qcFlag 
SCCF RECON,ioos:station:SCCF:12:1,2009-05-01T00:00:00Z,26.4966,-82.1479,2.45,36.44,1111122 
SCCF RECON,ioos:station:SCCF:12:1,2009-05-01T01:00:00Z,26.4966,-82.1479,2.343,36.45,1111122 
SCCF RECON,ioos:station:SCCF:12:1,2009-05-01T02:00:00Z,26.4966,-82.1479,2.24,36.43,1111122 
SCCF RECON,ioos:station:SCCF:12:1,2009-05-01T03:00:00Z,26.4966,-82.1479,2.144,36.46,1111122 
SCCF RECON,ioos:station:SCCF:12:1,2009-05-01T04:00:00Z,26.4966,-82.1479,2.035,36.46,1111122 
SCCF RECON,ioos:station:SCCF:12:1,2009-05-01T05:00:00Z,26.4966,-82.1479,1.939,36.46,1111122 
SCCF RECON,ioos:station:SCCF:12:1,2009-05-01T06:00:00Z,26.4966,-82.1479,1.867,36.46,1111122 
SCCF RECON,ioos:station:SCCF:12:1,2009-05-01T07:00:00Z,26.4966,-82.1479,1.885,36.46,1111122 
SCCF RECON,ioos:station:SCCF:12:1,2009-05-01T08:00:00Z,26.4966,-82.1479,1.998,36.47,1111122 
SCCF RECON,ioos:station:SCCF:12:1,2009-05-01T09:00:00Z,26.4966,-82.1479,2.091,36.46,1111122 
SCCF RECON,ioos:station:SCCF:12:1,2009-05-01T10:00:00Z,26.4966,-82.1479,2.188,36.46,1111122 
SCCF RECON,ioos:station:SCCF:12:1,2009-05-01T11:00:00Z,26.4966,-82.1479,2.27,36.51,1111122 
SCCF RECON,ioos:station:SCCF:12:1,2009-05-01T12:00:00Z,26.4966,-82.1479,2.349,36.48,1111122 
SCCF RECON,ioos:station:SCCF:12:1,2009-05-01T13:00:00Z,26.4966,-82.1479,2.389,36.45,1111122 
SCCF RECON,ioos:station:SCCF:12:1,2009-05-01T14:00:00Z,26.4966,-82.1479,2.391,36.37,1111122 
SCCF RECON,ioos:station:SCCF:12:1,2009-05-01T15:00:00Z,26.4966,-82.1479,2.38,36.27,1111122 
SCCF RECON,ioos:station:SCCF:12:1,2009-05-01T16:00:00Z,26.4966,-82.1479,2.343,36.33,1111122 
SCCF RECON,ioos:station:SCCF:12:1,2009-05-01T17:00:00Z,26.4966,-82.1479,2.3,36.32,1111122 
SCCF RECON,ioos:station:SCCF:12:1,2009-05-01T18:00:00Z,26.4966,-82.1479,2.305,36.31,1111122 
SCCF RECON,ioos:station:SCCF:12:1,2009-05-01T19:00:00Z,26.4966,-82.1479,2.362,36.32,1111122 
SCCF RECON,ioos:station:SCCF:12:1,2009-05-01T20:00:00Z,26.4966,-82.1479,2.42,36.34,1111122 
SCCF RECON,ioos:station:SCCF:12:1,2009-05-01T21:00:00Z,26.4966,-82.1479,2.47,36.38,1111122 
SCCF RECON,ioos:station:SCCF:12:1,2009-05-01T22:00:00Z,26.4966,-82.1479,2.5,36.41,1111122 
SCCF RECON,ioos:station:SCCF:12:1,2009-05-01T23:00:00Z,26.4966,-82.1479,2.51,36.44,1111122 
SCCF RECON,ioos:station:SCCF:12:1,2009-05-02T00:00:00Z,26.4966,-82.1479,2.49,36.43,1111122 
SCCF RECON,ioos:station:SCCF:12:1,2009-05-02T01:00:00Z,26.4966,-82.1479,2.43,36.43,1111122 
SCCF RECON,ioos:station:SCCF:12:1,2009-05-02T02:00:00Z,26.4966,-82.1479,2.34,36.37,1111122 
SCCF RECON,ioos:station:SCCF:12:1,2009-05-02T03:00:00Z,26.4966,-82.1479,2.24,36.34,1111122 
SCCF RECON,ioos:station:SCCF:12:1,2009-05-02T04:00:00Z,26.4966,-82.1479,2.13,36.46,1111122 
SCCF RECON,ioos:station:SCCF:12:1,2009-05-02T05:00:00Z,26.4966,-82.1479,2.02,36.46,1111122 
SCCF RECON,ioos:station:SCCF:12:1,2009-05-02T06:00:00Z,26.4966,-82.1479,1.92,36.46,1111122 
SCCF RECON,ioos:station:SCCF:12:1,2009-05-02T07:00:00Z,26.4966,-82.1479,1.86,36.49,1111122 
SCCF RECON,ioos:station:SCCF:12:1,2009-05-02T08:00:00Z,26.4966,-82.1479,1.872,36.55,1111122 
SCCF RECON,ioos:station:SCCF:12:1,2009-05-02T09:00:00Z,26.4966,-82.1479,1.995,36.53,1111122 
SCCF RECON,ioos:station:SCCF:12:1,2009-05-02T10:00:00Z,26.4966,-82.1479,2.11,36.5,1111122 
SCCF RECON,ioos:station:SCCF:12:1,2009-05-02T11:00:00Z,26.4966,-82.1479,2.203,36.47,1111122 
SCCF RECON,ioos:station:SCCF:12:1,2009-05-02T12:00:00Z,26.4966,-82.1479,2.282,36.51,1111122 
SCCF RECON,ioos:station:SCCF:12:1,2009-05-02T13:00:00Z,26.4966,-82.1479,2.347,36.48,1111122 
SCCF RECON,ioos:station:SCCF:12:1,2009-05-02T14:00:00Z,26.4966,-82.1479,2.38,36.47,1111122 
SCCF RECON,ioos:station:SCCF:12:1,2009-05-02T15:00:00Z,26.4966,-82.1479,2.369,36.41,1111122 
SCCF RECON,ioos:station:SCCF:12:1,2009-05-02T16:00:00Z,26.4966,-82.1479,2.31,36.36,1111122 
SCCF RECON,ioos:station:SCCF:12:1,2009-05-02T17:00:00Z,26.4966,-82.1479,2.248,36.31,1111122 
SCCF RECON,ioos:station:SCCF:12:1,2009-05-02T18:00:00Z,26.4966,-82.1479,2.201,36.3,1111122 
SCCF RECON,ioos:station:SCCF:12:1,2009-05-02T19:00:00Z,26.4966,-82.1479,2.171,36.33,1111122 
SCCF RECON,ioos:station:SCCF:12:1,2009-05-02T20:00:00Z,26.4966,-82.1479,2.188,36.33,1111122 
SCCF RECON,ioos:station:SCCF:12:1,2009-05-02T21:00:00Z,26.4966,-82.1479,2.252,36.39,1111122 
SCCF RECON,ioos:station:SCCF:12:1,2009-05-02T22:00:00Z,26.4966,-82.1479,2.334,36.48,1111122 
SCCF RECON,ioos:station:SCCF:12:1,2009-05-02T23:00:00Z,26.4966,-82.1479,2.4,36.5,1111122 
SCCF RECON,ioos:station:SCCF:12:1,2009-05-03T00:00:00Z,26.4966,-82.1479,2.44,36.49,1111122 
SCCF RECON,ioos:station:SCCF:12:1,2009-05-03T01:00:00Z,26.4966,-82.1479,2.44,36.46,1111122 
SCCF RECON,ioos:station:SCCF:12:1,2009-05-03T02:00:00Z,26.4966,-82.1479,2.41,36.44,1111122 
SCCF RECON,ioos:station:SCCF:12:1,2009-05-03T03:00:00Z,26.4966,-82.1479,2.35,36.38,1111122 
SCCF RECON,ioos:station:SCCF:12:1,2009-05-03T04:00:00Z,26.4966,-82.1479,2.27,36.42,1111122 
SCCF RECON,ioos:station:SCCF:12:1,2009-05-03T05:00:00Z,26.4966,-82.1479,2.18,36.41,1111122 
SCCF RECON,ioos:station:SCCF:12:1,2009-05-03T06:00:00Z,26.4966,-82.1479,2.098,36.44,1111122 
SCCF RECON,ioos:station:SCCF:12:1,2009-05-03T07:00:00Z,26.4966,-82.1479,2.01,36.44,1111122 
SCCF RECON,ioos:station:SCCF:12:1,2009-05-03T08:00:00Z,26.4966,-82.1479,1.95,36.44,1111122 
SCCF RECON,ioos:station:SCCF:12:1,2009-05-03T09:00:00Z,26.4966,-82.1479,1.982,36.43,1111122 
SCCF RECON,ioos:station:SCCF:12:1,2009-05-03T10:00:00Z,26.4966,-82.1479,2.115,36.43,1111122 
SCCF RECON,ioos:station:SCCF:12:1,2009-05-03T11:00:00Z,26.4966,-82.1479,2.24,36.38,1111122 
SCCF RECON,ioos:station:SCCF:12:1,2009-05-03T12:00:00Z,26.4966,-82.1479,2.342,36.43,1111122 
SCCF RECON,ioos:station:SCCF:12:1,2009-05-03T13:00:00Z,26.4966,-82.1479,2.421,36.45,1111122 
SCCF RECON,ioos:station:SCCF:12:1,2009-05-03T14:00:00Z,26.4966,-82.1479,2.487,36.52,1111122 
SCCF RECON,ioos:station:SCCF:12:1,2009-05-03T15:00:00Z,26.4966,-82.1479,2.502,36.39,1111122 
SCCF RECON,ioos:station:SCCF:12:1,2009-05-03T16:00:00Z,26.4966,-82.1479,2.461,36.31,1111122 
SCCF RECON,ioos:station:SCCF:12:1,2009-05-03T17:00:00Z,26.4966,-82.1479,2.385,36.32,1111122 
SCCF RECON,ioos:station:SCCF:12:1,2009-05-03T18:00:00Z,26.4966,-82.1479,2.284,36.36,1111122 
SCCF RECON,ioos:station:SCCF:12:1,2009-05-03T19:00:00Z,26.4966,-82.1479,2.196,36.36,1111122 
SCCF RECON,ioos:station:SCCF:12:1,2009-05-03T20:00:00Z,26.4966,-82.1479,2.126,36.37,1111122 
SCCF RECON,ioos:station:SCCF:12:1,2009-05-03T21:00:00Z,26.4966,-82.1479,2.13,36.39,1111122 
SCCF RECON,ioos:station:SCCF:12:1,2009-05-03T22:00:00Z,26.4966,-82.1479,2.22,36.38,1111122 
SCCF RECON,ioos:station:SCCF:12:1,2009-05-03T23:00:00Z,26.4966,-82.1479,2.34,36.38,1111122 
SCCF RECON,ioos:station:SCCF:12:1,2009-05-04T00:00:00Z,26.4966,-82.1479,2.42,36.42,1111122 
SCCF RECON,ioos:station:SCCF:12:1,2009-05-04T01:00:00Z,26.4966,-82.1479,2.47,36.45,1111122 
SCCF RECON,ioos:station:SCCF:12:1,2009-05-04T02:00:00Z,26.4966,-82.1479,2.48,36.47,1111122 
SCCF RECON,ioos:station:SCCF:12:1,2009-05-04T03:00:00Z,26.4966,-82.1479,2.44,36.44,1111122 
SCCF RECON,ioos:station:SCCF:12:1,2009-05-04T04:00:00Z,26.4966,-82.1479,2.39,36.45,1111122 
SCCF RECON,ioos:station:SCCF:12:1,2009-05-04T05:00:00Z,26.4966,-82.1479,2.3,36.48,1111122 
SCCF RECON,ioos:station:SCCF:12:1,2009-05-04T06:00:00Z,26.4966,-82.1479,2.201,36.52,1111122 
SCCF RECON,ioos:station:SCCF:12:1,2009-05-04T07:00:00Z,26.4966,-82.1479,2.1,36.52,1111122 
SCCF RECON,ioos:station:SCCF:12:1,2009-05-04T08:00:00Z,26.4966,-82.1479,2.01,36.53,1111122 
SCCF RECON,ioos:station:SCCF:12:1,2009-05-04T09:00:00Z,26.4966,-82.1479,1.96,36.51,1111122 
SCCF RECON,ioos:station:SCCF:12:1,2009-05-04T10:00:00Z,26.4966,-82.1479,2.016,36.51,1111122 
SCCF RECON,ioos:station:SCCF:12:1,2009-05-04T11:00:00Z,26.4966,-82.1479,2.15,36.48,1111122 
SCCF RECON,ioos:station:SCCF:12:1,2009-05-04T12:00:00Z,26.4966,-82.1479,2.268,36.55,1111122 
SCCF RECON,ioos:station:SCCF:12:1,2009-05-04T13:00:00Z,26.4966,-82.1479,2.354,36.54,1111122 
SCCF RECON,ioos:station:SCCF:12:1,2009-05-04T14:00:00Z,26.4966,-82.1479,2.43,36.54,1111122 
SCCF RECON,ioos:station:SCCF:12:1,2009-05-04T15:00:00Z,26.4966,-82.1479,2.481,36.55,1111122 
SCCF RECON,ioos:station:SCCF:12:1,2009-05-04T16:00:00Z,26.4966,-82.1479,2.476,36.71,1111122 
SCCF RECON,ioos:station:SCCF:12:1,2009-05-04T17:00:00Z,26.4966,-82.1479,2.406,36.87,1111122 
SCCF RECON,ioos:station:SCCF:12:1,2009-05-04T18:00:00Z,26.4966,-82.1479,2.307,36.91,1111122 
SCCF RECON,ioos:station:SCCF:12:1,2009-05-04T19:00:00Z,26.4966,-82.1479,2.18,36.93,1111122 
SCCF RECON,ioos:station:SCCF:12:1,2009-05-04T20:00:00Z,26.4966,-82.1479,2.07,36.95,1111122 
SCCF RECON,ioos:station:SCCF:12:1,2009-05-04T21:00:00Z,26.4966,-82.1479,2.003,36.93,1111122 
SCCF RECON,ioos:station:SCCF:12:1,2009-05-04T22:00:00Z,26.4966,-82.1479,2.01,36.83,1111122 
SCCF RECON,ioos:station:SCCF:12:1,2009-05-04T23:00:00Z,26.4966,-82.1479,2.09,36.73,1111122 
SCCF RECON,ioos:station:SCCF:12:1,2009-05-05T00:00:00Z,26.4966,-82.1479,2.2,36.76,1111122 
SCCF RECON,ioos:station:SCCF:12:1,2009-05-05T01:00:00Z,26.4966,-82.1479,2.29,36.77,1111122 
SCCF RECON,ioos:station:SCCF:12:1,2009-05-05T02:00:00Z,26.4966,-82.1479,2.35,36.81,1111122 
SCCF RECON,ioos:station:SCCF:12:1,2009-05-05T03:00:00Z,26.4966,-82.1479,2.39,36.8,1111122 
SCCF RECON,ioos:station:SCCF:12:1,2009-05-05T04:00:00Z,26.4966,-82.1479,2.41,36.81,1111122 
SCCF RECON,ioos:station:SCCF:12:1,2009-05-05T05:00:00Z,26.4966,-82.1479,2.37,36.77,1111122 
SCCF RECON,ioos:station:SCCF:12:1,2009-05-05T06:00:00Z,26.4966,-82.1479,2.29,36.84,1111122 
SCCF RECON,ioos:station:SCCF:12:1,2009-05-05T07:00:00Z,26.4966,-82.1479,2.21,37.01,1111122 
SCCF RECON,ioos:station:SCCF:12:1,2009-05-05T08:00:00Z,26.4966,-82.1479,2.12,37.01,1111122 
SCCF RECON,ioos:station:SCCF:12:1,2009-05-05T09:00:00Z,26.4966,-82.1479,2.04,37.02,1111122 
SCCF RECON,ioos:station:SCCF:12:1,2009-05-05T10:00:00Z,26.4966,-82.1479,2.012,36.96,1111122 
SCCF RECON,ioos:station:SCCF:12:1,2009-05-05T11:00:00Z,26.4966,-82.1479,2.081,36.92,1111122 
SCCF RECON,ioos:station:SCCF:12:1,2009-05-05T12:00:00Z,26.4966,-82.1479,2.22,36.8,1111122 
SCCF RECON,ioos:station:SCCF:12:1,2009-05-05T13:00:00Z,26.4966,-82.1479,2.341,36.81,1111122 
SCCF RECON,ioos:station:SCCF:12:1,2009-05-05T14:00:00Z,26.4966,-82.1479,2.44,37.0,1111122 
SCCF RECON,ioos:station:SCCF:12:1,2009-05-05T15:00:00Z,26.4966,-82.1479,2.522,36.94,1111122 
SCCF RECON,ioos:station:SCCF:12:1,2009-05-05T16:00:00Z,26.4966,-82.1479,2.544,36.95,1111122 
SCCF RECON,ioos:station:SCCF:12:1,2009-05-05T17:00:00Z,26.4966,-82.1479,2.48,36.99,1111122 
SCCF RECON,ioos:station:SCCF:12:1,2009-05-05T18:00:00Z,26.4966,-82.1479,2.356,37.02,1111122 
SCCF RECON,ioos:station:SCCF:12:1,2009-05-05T19:00:00Z,26.4966,-82.1479,2.22,37.04,1111122 
SCCF RECON,ioos:station:SCCF:12:1,2009-05-05T20:00:00Z,26.4966,-82.1479,2.09,37.03,1111122 
SCCF RECON,ioos:station:SCCF:12:1,2009-05-05T21:00:00Z,26.4966,-82.1479,1.985,36.94,1111122 
SCCF RECON,ioos:station:SCCF:12:1,2009-05-05T22:00:00Z,26.4966,-82.1479,1.918,36.95,1111122 
SCCF RECON,ioos:station:SCCF:12:1,2009-05-05T23:00:00Z,26.4966,-82.1479,1.93,36.91,1111122 
SCCF RECON,ioos:station:SCCF:12:1,2009-05-06T00:00:00Z,26.4966,-82.1479,2.03,36.93,1111122 
SCCF RECON,ioos:station:SCCF:12:1,2009-05-06T01:00:00Z,26.4966,-82.1479,2.17,36.96,1111122 
SCCF RECON,ioos:station:SCCF:12:1,2009-05-06T02:00:00Z,26.4966,-82.1479,2.29,37.0,1111122 
SCCF RECON,ioos:station:SCCF:12:1,2009-05-06T03:00:00Z,26.4966,-82.1479,2.38,36.99,1111122 
SCCF RECON,ioos:station:SCCF:12:1,2009-05-06T04:00:00Z,26.4966,-82.1479,2.44,37.0,1111122 
SCCF RECON,ioos:station:SCCF:12:1,2009-05-06T05:00:00Z,26.4966,-82.1479,2.44,36.92,1111122 
SCCF RECON,ioos:station:SCCF:12:1,2009-05-06T06:00:00Z,26.4966,-82.1479,2.37,36.92,1111122 
SCCF RECON,ioos:station:SCCF:12:1,2009-05-06T07:00:00Z,26.4966,-82.1479,2.256,37.05,1111122 
SCCF RECON,ioos:station:SCCF:12:1,2009-05-06T08:00:00Z,26.4966,-82.1479,2.15,36.65,1111122 
SCCF RECON,ioos:station:SCCF:12:1,2009-05-06T09:00:00Z,26.4966,-82.1479,2.076,36.65,1111122 
SCCF RECON,ioos:station:SCCF:12:1,2009-05-06T10:00:00Z,26.4966,-82.1479,2.038,36.79,1111122 
SCCF RECON,ioos:station:SCCF:12:1,2009-05-06T11:00:00Z,26.4966,-82.1479,2.061,36.73,1111122 
SCCF RECON,ioos:station:SCCF:12:1,2009-05-06T12:00:00Z,26.4966,-82.1479,2.16,36.77,1111122 
SCCF RECON,ioos:station:SCCF:12:1,2009-05-06T13:00:00Z,26.4966,-82.1479,2.29,36.73,1111122 
SCCF RECON,ioos:station:SCCF:12:1,2009-05-06T14:00:00Z,26.4966,-82.1479,2.4,36.77,1111122 
SCCF RECON,ioos:station:SCCF:12:1,2009-05-06T15:00:00Z,26.4966,-82.1479,2.48,36.76,1111122 
SCCF RECON,ioos:station:SCCF:12:1,2009-05-06T16:00:00Z,26.4966,-82.1479,2.529,36.58,1111122 
SCCF RECON,ioos:station:SCCF:12:1,2009-05-06T17:00:00Z,26.4966,-82.1479,2.492,36.85,1111122 
SCCF RECON,ioos:station:SCCF:12:1,2009-05-06T18:00:00Z,26.4966,-82.1479,2.398,36.93,1111122 
SCCF RECON,ioos:station:SCCF:12:1,2009-05-06T19:00:00Z,26.4966,-82.1479,2.261,36.97,1111122 
SCCF RECON,ioos:station:SCCF:12:1,2009-05-06T20:00:00Z,26.4966,-82.1479,2.12,36.99,1111122 
SCCF RECON,ioos:station:SCCF:12:1,2009-05-06T21:00:00Z,26.4966,-82.1479,1.993,37.0,1111122 
SCCF RECON,ioos:station:SCCF:12:1,2009-05-06T22:00:00Z,26.4966,-82.1479,1.891,36.99,1111122 
SCCF RECON,ioos:station:SCCF:12:1,2009-05-06T23:00:00Z,26.4966,-82.1479,1.834,36.95,1111122 
SCCF RECON,ioos:station:SCCF:12:1,2009-05-07T00:00:00Z,26.4966,-82.1479,1.84,36.78,1111122 
SCCF RECON,ioos:station:SCCF:12:1,2009-05-07T01:00:00Z,26.4966,-82.1479,1.96,36.82,1111122 
SCCF RECON,ioos:station:SCCF:12:1,2009-05-07T02:00:00Z,26.4966,-82.1479,2.134,36.83,1111122 
SCCF RECON,ioos:station:SCCF:12:1,2009-05-07T03:00:00Z,26.4966,-82.1479,2.27,36.87,1111122 
SCCF RECON,ioos:station:SCCF:12:1,2009-05-07T04:00:00Z,26.4966,-82.1479,2.37,36.92,1111122 
SCCF RECON,ioos:station:SCCF:12:1,2009-05-07T05:00:00Z,26.4966,-82.1479,2.42,36.88,1111122 
SCCF RECON,ioos:station:SCCF:12:1,2009-05-07T06:00:00Z,26.4966,-82.1479,2.39,36.93,1111122 
SCCF RECON,ioos:station:SCCF:12:1,2009-05-07T07:00:00Z,26.4966,-82.1479,2.319,37.0,1111122 
SCCF RECON,ioos:station:SCCF:12:1,2009-05-07T08:00:00Z,26.4966,-82.1479,2.23,37.07,1111122 
SCCF RECON,ioos:station:SCCF:12:1,2009-05-07T09:00:00Z,26.4966,-82.1479,2.15,37.07,1111122 
SCCF RECON,ioos:station:SCCF:12:1,2009-05-07T10:00:00Z,26.4966,-82.1479,2.09,37.07,1111122 
SCCF RECON,ioos:station:SCCF:12:1,2009-05-07T11:00:00Z,26.4966,-82.1479,2.079,37.07,1111122 
SCCF RECON,ioos:station:SCCF:12:1,2009-05-07T12:00:00Z,26.4966,-82.1479,2.13,37.06,1111122 
SCCF RECON,ioos:station:SCCF:12:1,2009-05-07T13:00:00Z,26.4966,-82.1479,2.26,36.95,1111122 
SCCF RECON,ioos:station:SCCF:12:1,2009-05-07T14:00:00Z,26.4966,-82.1479,2.399,36.94,1111122 
SCCF RECON,ioos:station:SCCF:12:1,2009-05-07T15:00:00Z,26.4966,-82.1479,2.48,36.99,1111122 
SCCF RECON,ioos:station:SCCF:12:1,2009-05-07T16:00:00Z,26.4966,-82.1479,2.517,37.06,1111122 
SCCF RECON,ioos:station:SCCF:12:1,2009-05-07T17:00:00Z,26.4966,-82.1479,2.493,37.05,1111122 
SCCF RECON,ioos:station:SCCF:12:1,2009-05-07T18:00:00Z,26.4966,-82.1479,2.41,37.02,1111122 
SCCF RECON,ioos:station:SCCF:12:1,2009-05-07T19:00:00Z,26.4966,-82.1479,2.289,37.08,1111122 
SCCF RECON,ioos:station:SCCF:12:1,2009-05-07T20:00:00Z,26.4966,-82.1479,2.143,37.11,1111122 
SCCF RECON,ioos:station:SCCF:12:1,2009-05-07T21:00:00Z,26.4966,-82.1479,2.017,37.05,1111122 
SCCF RECON,ioos:station:SCCF:12:1,2009-05-07T22:00:00Z,26.4966,-82.1479,1.899,37.03,1111122 
SCCF RECON,ioos:station:SCCF:12:1,2009-05-07T23:00:00Z,26.4966,-82.1479,1.79,36.97,1111122 
SCCF RECON,ioos:station:SCCF:12:1,2009-05-08T00:00:00Z,26.4966,-82.1479,1.72,36.92,1111122 
SCCF RECON,ioos:station:SCCF:12:1,2009-05-08T01:00:00Z,26.4966,-82.1479,1.76,36.96,1111122 
SCCF RECON,ioos:station:SCCF:12:1,2009-05-08T02:00:00Z,26.4966,-82.1479,1.928,37.02,1111122 
SCCF RECON,ioos:station:SCCF:12:1,2009-05-08T03:00:00Z,26.4966,-82.1479,2.08,37.09,1111122 
SCCF RECON,ioos:station:SCCF:12:1,2009-05-08T04:00:00Z,26.4966,-82.1479,2.192,37.03,1111122 
SCCF RECON,ioos:station:SCCF:12:1,2009-05-08T05:00:00Z,26.4966,-82.1479,2.29,37.01,1111122 
SCCF RECON,ioos:station:SCCF:12:1,2009-05-08T06:00:00Z,26.4966,-82.1479,2.35,36.95,1111122 
SCCF RECON,ioos:station:SCCF:12:1,2009-05-08T07:00:00Z,26.4966,-82.1479,2.33,36.95,1111122 
SCCF RECON,ioos:station:SCCF:12:1,2009-05-08T08:00:00Z,26.4966,-82.1479,2.26,37.07,1111122 
SCCF RECON,ioos:station:SCCF:12:1,2009-05-08T09:00:00Z,26.4966,-82.1479,2.178,37.07,1111122 
SCCF RECON,ioos:station:SCCF:12:1,2009-05-08T10:00:00Z,26.4966,-82.1479,2.14,37.07,1111122 
SCCF RECON,ioos:station:SCCF:12:1,2009-05-08T11:00:00Z,26.4966,-82.1479,2.13,37.08,1111122 
SCCF RECON,ioos:station:SCCF:12:1,2009-05-08T12:00:00Z,26.4966,-82.1479,2.156,37.08,1111122 
SCCF RECON,ioos:station:SCCF:12:1,2009-05-08T13:00:00Z,26.4966,-82.1479,2.218,36.97,1111122 
SCCF RECON,ioos:station:SCCF:12:1,2009-05-08T14:00:00Z,26.4966,-82.1479,2.33,36.95,1111122 
SCCF RECON,ioos:station:SCCF:12:1,2009-05-08T15:00:00Z,26.4966,-82.1479,2.466,37.02,1111122 
SCCF RECON,ioos:station:SCCF:12:1,2009-05-08T16:00:00Z,26.4966,-82.1479,2.557,37.03,1111122 
SCCF RECON,ioos:station:SCCF:12:1,2009-05-08T17:00:00Z,26.4966,-82.1479,2.584,37.02,1111122 
SCCF RECON,ioos:station:SCCF:12:1,2009-05-08T18:00:00Z,26.4966,-82.1479,2.54,37.04,1111122 
SCCF RECON,ioos:station:SCCF:12:1,2009-05-08T19:00:00Z,26.4966,-82.1479,2.42,37.1,1111122 
SCCF RECON,ioos:station:SCCF:12:1,2009-05-08T20:00:00Z,26.4966,-82.1479,2.274,37.12,1111122 
SCCF RECON,ioos:station:SCCF:12:1,2009-05-08T21:00:00Z,26.4966,-82.1479,2.13,37.13,1111122 
SCCF RECON,ioos:station:SCCF:12:1,2009-05-08T22:00:00Z,26.4966,-82.1479,2.0,37.12,1111122 
SCCF RECON,ioos:station:SCCF:12:1,2009-05-08T23:00:00Z,26.4966,-82.1479,1.892,37.1,1111122 
SCCF RECON,ioos:station:SCCF:12:1,2009-05-09T00:00:00Z,26.4966,-82.1479,1.801,37.05,1111122 
SCCF RECON,ioos:station:SCCF:12:1,2009-05-09T01:00:00Z,26.4966,-82.1479,1.76,37.01,1111122 
SCCF RECON,ioos:station:SCCF:12:1,2009-05-09T02:00:00Z,26.4966,-82.1479,1.837,37.02,1111122 
SCCF RECON,ioos:station:SCCF:12:1,2009-05-09T03:00:00Z,26.4966,-82.1479,2.002,37.05,1111122 
SCCF RECON,ioos:station:SCCF:12:1,2009-05-09T04:00:00Z,26.4966,-82.1479,2.15,37.1,1111122 
SCCF RECON,ioos:station:SCCF:12:1,2009-05-09T05:00:00Z,26.4966,-82.1479,2.26,37.05,1111122 
SCCF RECON,ioos:station:SCCF:12:1,2009-05-09T06:00:00Z,26.4966,-82.1479,2.34,37.01,1111122 
SCCF RECON,ioos:station:SCCF:12:1,2009-05-09T07:00:00Z,26.4966,-82.1479,2.37,37.03,1111122 
SCCF RECON,ioos:station:SCCF:12:1,2009-05-09T08:00:00Z,26.4966,-82.1479,2.348,37.06,1111122 
SCCF RECON,ioos:station:SCCF:12:1,2009-05-09T09:00:00Z,26.4966,-82.1479,2.29,37.15,1111122 
SCCF RECON,ioos:station:SCCF:12:1,2009-05-09T10:00:00Z,26.4966,-82.1479,2.25,37.13,1111122 
SCCF RECON,ioos:station:SCCF:12:1,2009-05-09T11:00:00Z,26.4966,-82.1479,2.247,37.13,1111122 
SCCF RECON,ioos:station:SCCF:12:1,2009-05-09T12:00:00Z,26.4966,-82.1479,2.26,37.13,1111122 
SCCF RECON,ioos:station:SCCF:12:1,2009-05-09T13:00:00Z,26.4966,-82.1479,2.309,37.15,1111122 
SCCF RECON,ioos:station:SCCF:12:1,2009-05-09T14:00:00Z,26.4966,-82.1479,2.392,37.08,1111122 
SCCF RECON,ioos:station:SCCF:12:1,2009-05-09T15:00:00Z,26.4966,-82.1479,2.51,37.06,1111122 
SCCF RECON,ioos:station:SCCF:12:1,2009-05-09T16:00:00Z,26.4966,-82.1479,2.612,37.1,1111122 
SCCF RECON,ioos:station:SCCF:12:1,2009-05-09T17:00:00Z,26.4966,-82.1479,2.644,37.11,1111122 
SCCF RECON,ioos:station:SCCF:12:1,2009-05-09T18:00:00Z,26.4966,-82.1479,2.6,37.13,1111122 
SCCF RECON,ioos:station:SCCF:12:1,2009-05-09T19:00:00Z,26.4966,-82.1479,2.502,37.12,1111122 
SCCF RECON,ioos:station:SCCF:12:1,2009-05-09T20:00:00Z,26.4966,-82.1479,2.367,37.13,1111122 
SCCF RECON,ioos:station:SCCF:12:1,2009-05-09T21:00:00Z,26.4966,-82.1479,2.215,37.16,1111122 
SCCF RECON,ioos:station:SCCF:12:1,2009-05-09T22:00:00Z,26.4966,-82.1479,2.08,37.13,1111122 
SCCF RECON,ioos:station:SCCF:12:1,2009-05-09T23:00:00Z,26.4966,-82.1479,1.95,37.12,1111122 
SCCF RECON,ioos:station:SCCF:12:1,2009-05-10T00:00:00Z,26.4966,-82.1479,1.84,37.09,1111122 
SCCF RECON,ioos:station:SCCF:12:1,2009-05-10T01:00:00Z,26.4966,-82.1479,1.749,37.08,1111122 
SCCF RECON,ioos:station:SCCF:12:1,2009-05-10T02:00:00Z,26.4966,-82.1479,1.729,37.09,1111122 
SCCF RECON,ioos:station:SCCF:12:1,2009-05-10T03:00:00Z,26.4966,-82.1479,1.827,37.12,1111122 
SCCF RECON,ioos:station:SCCF:12:1,2009-05-10T04:00:00Z,26.4966,-82.1479,2.01,37.14,1111122 
SCCF RECON,ioos:station:SCCF:12:1,2009-05-10T05:00:00Z,26.4966,-82.1479,2.138,37.14,1111122 
SCCF RECON,ioos:station:SCCF:12:1,2009-05-10T06:00:00Z,26.4966,-82.1479,2.23,37.12,1111122 
SCCF RECON,ioos:station:SCCF:12:1,2009-05-10T07:00:00Z,26.4966,-82.1479,2.298,37.09,1111122 
SCCF RECON,ioos:station:SCCF:12:1,2009-05-10T08:00:00Z,26.4966,-82.1479,2.31,37.11,1111122 
SCCF RECON,ioos:station:SCCF:12:1,2009-05-10T09:00:00Z,26.4966,-82.1479,2.27,37.16,1111122 
SCCF RECON,ioos:station:SCCF:12:1,2009-05-10T10:00:00Z,26.4966,-82.1479,2.21,37.17,1111122 
SCCF RECON,ioos:station:SCCF:12:1,2009-05-10T11:00:00Z,26.4966,-82.1479,2.195,37.17,1111122 
SCCF RECON,ioos:station:SCCF:12:1,2009-05-10T12:00:00Z,26.4966,-82.1479,2.189,37.17,1111122 
SCCF RECON,ioos:station:SCCF:12:1,2009-05-10T13:00:00Z,26.4966,-82.1479,2.19,37.17,1111122 
SCCF RECON,ioos:station:SCCF:12:1,2009-05-10T14:00:00Z,26.4966,-82.1479,2.247,37.14,1111122 
SCCF RECON,ioos:station:SCCF:12:1,2009-05-10T15:00:00Z,26.4966,-82.1479,2.36,37.11,1111122 
SCCF RECON,ioos:station:SCCF:12:1,2009-05-10T16:00:00Z,26.4966,-82.1479,2.478,37.13,1111122 
SCCF RECON,ioos:station:SCCF:12:1,2009-05-10T17:00:00Z,26.4966,-82.1479,2.546,37.14,1111122 
SCCF RECON,ioos:station:SCCF:12:1,2009-05-10T18:00:00Z,26.4966,-82.1479,2.552,37.13,1111122 
SCCF RECON,ioos:station:SCCF:12:1,2009-05-10T19:00:00Z,26.4966,-82.1479,2.502,37.14,1111122 
SCCF RECON,ioos:station:SCCF:12:1,2009-05-10T20:00:00Z,26.4966,-82.1479,2.4,37.13,1111122 
SCCF RECON,ioos:station:SCCF:12:1,2009-05-10T21:00:00Z,26.4966,-82.1479,2.26,37.15,1111122 
SCCF RECON,ioos:station:SCCF:12:1,2009-05-10T22:00:00Z,26.4966,-82.1479,2.128,37.16,1111122 
SCCF RECON,ioos:station:SCCF:12:1,2009-05-10T23:00:00Z,26.4966,-82.1479,2.005,37.16,1111122 
SCCF RECON,ioos:station:SCCF:12:1,2009-05-11T00:00:00Z,26.4966,-82.1479,1.895,37.15,1111122 
SCCF RECON,ioos:station:SCCF:12:1,2009-05-11T01:00:00Z,26.4966,-82.1479,1.809,37.16,1111122 
SCCF RECON,ioos:station:SCCF:12:1,2009-05-11T02:00:00Z,26.4966,-82.1479,1.744,37.18,1111122 
SCCF RECON,ioos:station:SCCF:12:1,2009-05-11T03:00:00Z,26.4966,-82.1479,1.765,37.17,1111122 
SCCF RECON,ioos:station:SCCF:12:1,2009-05-11T04:00:00Z,26.4966,-82.1479,1.919,37.18,1111122 
SCCF RECON,ioos:station:SCCF:12:1,2009-05-11T05:00:00Z,26.4966,-82.1479,2.05,37.19,1111122 
SCCF RECON,ioos:station:SCCF:12:1,2009-05-11T06:00:00Z,26.4966,-82.1479,2.154,37.22,1111122 
SCCF RECON,ioos:station:SCCF:12:1,2009-05-11T07:00:00Z,26.4966,-82.1479,2.24,37.19,1111122 
SCCF RECON,ioos:station:SCCF:12:1,2009-05-11T08:00:00Z,26.4966,-82.1479,2.29,37.18,1111122 
SCCF RECON,ioos:station:SCCF:12:1,2009-05-11T09:00:00Z,26.4966,-82.1479,2.302,37.19,1111122 
SCCF RECON,ioos:station:SCCF:12:1,2009-05-11T10:00:00Z,26.4966,-82.1479,2.252,37.18,1111122 
SCCF RECON,ioos:station:SCCF:12:1,2009-05-11T11:00:00Z,26.4966,-82.1479,2.192,37.19,1111122 
SCCF RECON,ioos:station:SCCF:12:1,2009-05-11T12:00:00Z,26.4966,-82.1479,2.162,37.2,1111122 
SCCF RECON,ioos:station:SCCF:12:1,2009-05-11T13:00:00Z,26.4966,-82.1479,2.18,37.19,1111122 
SCCF RECON,ioos:station:SCCF:12:1,2009-05-11T14:00:00Z,26.4966,-82.1479,2.243,37.2,1111122 
SCCF RECON,ioos:station:SCCF:12:1,2009-05-11T15:00:00Z,26.4966,-82.1479,2.357,37.21,1111122 
SCCF RECON,ioos:station:SCCF:12:1,2009-05-11T16:00:00Z,26.4966,-82.1479,2.461,37.23,1111122 
SCCF RECON,ioos:station:SCCF:12:1,2009-05-11T17:00:00Z,26.4966,-82.1479,2.536,37.23,1111122 